Location: Skalnate Pleso
(49.1889°N, 20.2450°E)
Time: 22:54:11
(UTC+01:00)

Cosmos 1151 Rocket - Pass Details

Date: 19 November 2019
Orbit: 593 x 615 km, 82.5° (Epoch: 05 December)

Event Time Altitude Azimuth Distance (km) Brightness Sun altitude
Exits shadow 05:49:36 - 327° (NNW) 2,186 5.4 -10.6°
Reaches altitude 10° 05:50:14 10° 322° (NW) 1,981 5.2 -10.5°
Maximum altitude 05:53:31 21° 274° (W) 1,383 4.3 -10.0°
Drops below altitude 10° 05:56:47 10° 225° (SW) 1,959 5.4 -9.4°
Sets 05:59:24 0° 209° (SSW) 2,853 6.4 -9.0°
